TimeCDT,TemperatureF,Dew PointF,Humidity,Sea Level PressureIn,VisibilityMPH,Wind Direction,Wind SpeedMPH,Gust SpeedMPH,PrecipitationIn,Events,Conditions,WindDirDegrees,DateUTC
12:15 AM,42.8,33.8,70,30.16,10.0,NNW,3.5,-,N/A,,Clear,340,2013-04-20 05:15:00
12:35 AM,42.8,33.8,70,30.16,10.0,NNW,3.5,-,N/A,,Clear,340,2013-04-20 05:35:00
12:55 AM,42.8,32.0,66,30.16,10.0,Calm,Calm,-,N/A,,Clear,0,2013-04-20 05:55:00
1:35 AM,37.4,33.8,87,30.16,10.0,Calm,Calm,-,N/A,,Clear,0,2013-04-20 06:35:00
1:55 AM,37.4,33.8,87,30.16,10.0,Calm,Calm,-,N/A,,Clear,0,2013-04-20 06:55:00
2:15 AM,37.4,32.0,81,30.16,10.0,Calm,Calm,-,N/A,,Clear,0,2013-04-20 07:15:00
2:35 AM,37.4,33.8,87,30.16,10.0,Calm,Calm,-,N/A,,Clear,0,2013-04-20 07:35:00
2:55 AM,35.6,33.8,93,30.16,10.0,Calm,Calm,-,N/A,,Clear,0,2013-04-20 07:55:00
3:15 AM,35.6,33.8,93,30.17,10.0,Calm,Calm,-,N/A,,Clear,0,2013-04-20 08:15:00
3:35 AM,35.6,32.0,87,30.17,10.0,Calm,Calm,-,N/A,,Clear,0,2013-04-20 08:35:00
3:55 AM,35.6,32.0,87,30.17,10.0,Calm,Calm,-,N/A,,Clear,0,2013-04-20 08:55:00
4:15 AM,35.6,32.0,87,30.17,10.0,Calm,Calm,-,N/A,,Clear,0,2013-04-20 09:15:00
4:35 AM,33.8,30.2,87,30.17,10.0,West,3.5,-,N/A,,Clear,280,2013-04-20 09:35:00
4:55 AM,33.8,30.2,87,30.17,10.0,Calm,Calm,-,N/A,,Clear,0,2013-04-20 09:55:00
5:15 AM,35.6,32.0,87,30.18,10.0,Calm,Calm,-,N/A,,Clear,0,2013-04-20 10:15:00
5:35 AM,33.8,30.2,87,30.18,10.0,Calm,Calm,-,N/A,,Clear,0,2013-04-20 10:35:00
5:55 AM,33.8,30.2,87,30.19,10.0,Calm,Calm,-,N/A,,Clear,0,2013-04-20 10:55:00
6:15 AM,35.6,32.0,87,30.19,10.0,Calm,Calm,-,N/A,,Clear,0,2013-04-20 11:15:00
6:35 AM,35.6,32.0,87,30.20,10.0,Calm,Calm,-,N/A,,Clear,0,2013-04-20 11:35:00
6:55 AM,35.6,33.8,93,30.21,10.0,Calm,Calm,-,N/A,,Clear,0,2013-04-20 11:55:00
7:15 AM,37.4,33.8,87,30.22,10.0,Calm,Calm,-,N/A,,Clear,0,2013-04-20 12:15:00
7:35 AM,39.2,33.8,81,30.23,10.0,NNW,3.5,-,N/A,,Clear,340,2013-04-20 12:35:00
7:55 AM,41.0,33.8,76,30.23,10.0,Calm,Calm,-,N/A,,Clear,0,2013-04-20 12:55:00
8:15 AM,42.8,35.6,76,30.24,10.0,Calm,Calm,-,N/A,,Clear,0,2013-04-20 13:15:00
8:35 AM,44.6,35.6,71,30.25,10.0,Calm,Calm,-,N/A,,Clear,0,2013-04-20 13:35:00
8:55 AM,46.4,35.6,66,30.25,10.0,Calm,Calm,-,N/A,,Clear,0,2013-04-20 13:55:00
9:15 AM,48.2,35.6,62,30.25,10.0,North,5.8,-,N/A,,Clear,350,2013-04-20 14:15:00
9:35 AM,51.8,37.4,58,30.26,10.0,North,3.5,-,N/A,,Clear,360,2013-04-20 14:35:00
9:55 AM,53.6,35.6,51,30.26,10.0,NNW,8.1,-,N/A,,Clear,330,2013-04-20 14:55:00
10:15 AM,53.6,35.6,51,30.27,10.0,NW,5.8,-,N/A,,Clear,310,2013-04-20 15:15:00
10:35 AM,55.4,35.6,47,30.27,10.0,Calm,Calm,-,N/A,,Clear,0,2013-04-20 15:35:00
10:55 AM,57.2,30.2,36,30.27,10.0,North,8.1,19.6,N/A,,Clear,350,2013-04-20 15:55:00
11:15 AM,57.2,30.2,36,30.26,10.0,North,5.8,18.4,N/A,,Clear,10,2013-04-20 16:15:00
11:35 AM,57.2,30.2,36,30.26,10.0,NE,9.2,19.6,N/A,,Clear,40,2013-04-20 16:35:00
11:55 AM,57.2,30.2,36,30.25,10.0,North,11.5,17.3,N/A,,Clear,360,2013-04-20 16:55:00
12:15 PM,57.2,30.2,36,30.25,10.0,North,3.5,-,N/A,,Clear,10,2013-04-20 17:15:00
12:35 PM,59.0,30.2,34,30.25,10.0,ENE,4.6,-,N/A,,Clear,60,2013-04-20 17:35:00
12:55 PM,60.8,30.2,31,30.25,10.0,North,11.5,-,N/A,,Clear,360,2013-04-20 17:55:00
1:15 PM,60.8,28.4,29,30.24,10.0,NNW,6.9,-,N/A,,Clear,330,2013-04-20 18:15:00
1:35 PM,60.8,32.0,34,30.23,10.0,ENE,5.8,16.1,N/A,,Clear,70,2013-04-20 18:35:00
1:55 PM,60.8,32.0,34,30.24,10.0,North,9.2,-,N/A,,Clear,350,2013-04-20 18:55:00
2:15 PM,62.6,33.8,34,30.23,5.0,North,9.2,21.9,N/A,,Clear,350,2013-04-20 19:15:00
2:35 PM,62.6,32.0,32,30.22,10.0,NNE,4.6,17.3,N/A,,Clear,30,2013-04-20 19:35:00
2:55 PM,62.6,33.8,34,30.22,10.0,NNE,9.2,-,N/A,,Clear,30,2013-04-20 19:55:00
3:35 PM,62.6,33.8,34,30.20,10.0,North,4.6,-,N/A,,Clear,350,2013-04-20 20:35:00
3:55 PM,62.6,33.8,34,30.21,10.0,NW,3.5,-,N/A,,Clear,320,2013-04-20 20:55:00
4:15 PM,62.6,33.8,34,30.20,10.0,North,5.8,-,N/A,,Clear,350,2013-04-20 21:15:00
4:35 PM,62.6,33.8,34,30.20,10.0,NNW,8.1,-,N/A,,Clear,340,2013-04-20 21:35:00
4:55 PM,62.6,33.8,34,30.20,10.0,NNW,6.9,-,N/A,,Clear,340,2013-04-20 21:55:00
5:15 PM,62.6,32.0,32,30.20,10.0,NNE,8.1,-,N/A,,Clear,30,2013-04-20 22:15:00
5:35 PM,62.6,32.0,32,30.19,10.0,NNW,5.8,-,N/A,,Clear,330,2013-04-20 22:35:00
5:55 PM,60.8,33.8,36,30.19,10.0,Calm,Calm,-,N/A,,Clear,0,2013-04-20 22:55:00
6:15 PM,60.8,30.2,31,30.19,10.0,North,4.6,-,N/A,,Clear,360,2013-04-20 23:15:00
6:35 PM,57.2,33.8,41,30.20,10.0,North,5.8,-,N/A,,Clear,350,2013-04-20 23:35:00
6:55 PM,57.2,35.6,44,30.20,10.0,NNW,3.5,-,N/A,,Clear,340,2013-04-20 23:55:00
7:15 PM,55.4,37.4,51,30.21,10.0,NNW,3.5,-,N/A,,Clear,330,2013-04-21 00:15:00
7:35 PM,53.6,37.4,54,30.22,10.0,NW,3.5,-,N/A,,Clear,320,2013-04-21 00:35:00
7:55 PM,51.8,37.4,58,30.21,10.0,NNW,3.5,-,N/A,,Clear,340,2013-04-21 00:55:00
8:15 PM,48.2,39.2,71,30.22,10.0,Calm,Calm,-,N/A,,Clear,0,2013-04-21 01:15:00
8:35 PM,50.0,37.4,62,30.23,10.0,NW,4.6,-,N/A,,Clear,320,2013-04-21 01:35:00
8:55 PM,50.0,37.4,62,30.24,10.0,NW,4.6,-,N/A,,Clear,310,2013-04-21 01:55:00
9:15 PM,48.2,37.4,66,30.24,10.0,Calm,Calm,-,N/A,,Clear,0,2013-04-21 02:15:00
9:35 PM,46.4,39.2,76,30.25,10.0,Calm,Calm,-,N/A,,Clear,0,2013-04-21 02:35:00
9:55 PM,44.6,37.4,76,30.26,10.0,Calm,Calm,-,N/A,,Clear,0,2013-04-21 02:55:00
10:15 PM,44.6,37.4,76,30.26,10.0,Calm,Calm,-,N/A,,Clear,0,2013-04-21 03:15:00
10:35 PM,44.6,37.4,76,30.26,10.0,Calm,Calm,-,N/A,,Clear,0,2013-04-21 03:35:00
10:55 PM,42.8,37.4,81,30.25,10.0,Calm,Calm,-,N/A,,Clear,0,2013-04-21 03:55:00
11:15 PM,42.8,37.4,81,30.26,10.0,Calm,Calm,-,N/A,,Clear,0,2013-04-21 04:15:00
11:35 PM,42.8,37.4,81,30.26,10.0,Calm,Calm,-,N/A,,Clear,0,2013-04-21 04:35:00
11:55 PM,42.8,37.4,81,30.26,10.0,Calm,Calm,-,N/A,,Clear,0,2013-04-21 04:55:00